"startDT [UTC]","vpos","CH4 [ppm]","stdev(CH4) [ppm]","CO2 [ppm]","stdev(CO2) [ppm]","H2O [ppm]","stdev(H2O)","p_LGR [torr]","T_LGR [C]","mt1_LGR [us]","mt2_LGR [us]","T_ECpre [C]","T_EC1 [C]","T_EC2 [C]","p_inlet [hPa]","p_in [hPa]","p_out [hPa]","T_inlet [C]","RH_inlet [%]","dwpt_inlet [C]","T_vent [C]","RH_vent [%]","dwpt_vent [C]","flow_vent [l min-1]","flow_inlet [l min-1]","dwpt_sample [C]","T_room [C]"
2013-03-12 00:00:00,0.0,1.9413,0.0008,406.99,0.34,-1.0,0.0,138.16,26.26,24.62,36.30,0.04,-272.75,-272.76,-46,547,-928,19.7,0.8,-40.1,19.8,0.8,-39.5,5.73,2.36,-36.9,25.1
2013-03-12 00:01:00,0.0,1.9413,0.0010,406.85,0.29,-1.0,0.0,138.16,26.26,24.61,36.31,0.04,-272.75,-272.75,-46,547,-927,19.7,0.8,-39.9,19.9,0.8,-39.5,5.73,2.35,-36.9,25.1
2013-03-12 00:02:00,0.0,1.9423,0.0008,407.04,0.29,-1.0,0.0,138.16,26.25,24.62,36.30,0.04,-272.75,-272.76,-46,547,-927,19.7,0.8,-39.9,19.8,0.9,-39.2,5.73,2.36,-36.9,25.1
2013-03-12 00:03:00,0.0,1.9417,0.0009,407.00,0.27,-1.0,0.0,138.16,26.25,24.62,36.30,0.04,-272.76,-272.76,-46,547,-927,19.7,0.8,-40.0,19.9,0.9,-39.2,5.73,2.37,-36.8,25.1
2013-03-12 00:04:00,0.0,1.9419,0.0008,407.05,0.27,-1.0,0.0,138.16,26.25,24.62,36.31,0.04,-272.75,-272.76,-46,547,-927,19.7,0.8,-39.8,19.9,0.9,-39.2,5.73,2.40,-36.9,25.1
2013-03-12 00:05:00,0.0,1.9437,0.0008,407.21,0.30,-1.0,0.0,138.16,26.25,24.62,36.29,0.04,-272.76,-272.76,-46,547,-927,19.7,0.8,-39.5,19.9,0.9,-38.9,5.73,2.41,-36.8,25.1
2013-03-12 00:06:00,0.0,1.9446,0.0010,407.11,0.30,-1.0,0.0,138.16,26.25,24.62,36.30,0.04,-272.76,-272.76,-46,547,-927,19.7,0.8,-39.6,19.9,0.9,-38.9,5.73,2.41,-36.8,25.1
2013-03-12 00:07:00,0.0,1.9466,0.0014,407.01,0.26,-1.0,0.0,138.16,26.24,24.61,36.31,0.04,-272.75,-272.76,-46,547,-927,19.7,0.9,-39.3,19.9,0.9,-38.9,5.73,2.40,-36.8,25.1
2013-03-12 00:08:00,0.0,1.9455,0.0011,407.05,0.29,-1.0,0.0,138.16,26.24,24.62,36.30,0.04,-272.75,-272.75,-46,547,-927,19.7,0.9,-39.3,19.8,0.9,-38.7,5.73,2.39,-36.8,25.1
2013-03-12 00:09:00,0.0,1.9436,0.0008,407.06,0.30,-1.0,0.0,138.16,26.24,24.62,36.31,0.04,-272.75,-272.76,-46,547,-927,19.7,0.9,-39.3,19.8,0.9,-38.6,5.73,2.36,-36.8,25.1
2013-03-12 00:10:00,0.0,1.9453,0.0015,407.13,0.33,-1.0,0.0,138.16,26.24,24.62,36.30,0.04,-272.75,-272.76,-46,547,-927,19.7,0.9,-39.3,19.9,0.9,-38.6,5.73,2.35,-36.8,25.1
2013-03-12 00:11:00,0.0,1.9444,0.0013,407.06,0.28,-1.0,0.0,138.16,26.23,24.61,36.30,0.04,-272.75,-272.75,-46,547,-927,19.7,0.9,-39.3,19.8,0.9,-38.6,5.73,2.35,-36.7,25.1
2013-03-12 00:12:00,0.0,1.9454,0.0010,407.06,0.32,-1.0,0.0,138.16,26.23,24.61,36.30,0.04,-272.76,-272.75,-46,547,-927,19.7,0.9,-39.3,19.8,0.9,-38.6,5.73,2.36,-36.7,25.1
2013-03-12 00:13:00,0.0,1.9424,0.0012,406.92,0.28,-1.0,0.0,138.16,26.23,24.62,36.31,0.04,-272.75,-272.76,-46,547,-927,19.7,0.9,-39.3,19.8,0.9,-38.7,5.73,2.38,-36.7,25.1
2013-03-12 00:14:00,0.0,1.9420,0.0010,407.01,0.29,-1.0,0.0,138.16,26.22,24.62,36.30,0.04,-272.75,-272.75,-46,547,-927,19.7,0.9,-39.2,19.9,0.9,-38.6,5.73,2.40,-36.7,25.1
2013-03-12 00:15:00,0.0,1.9436,0.0009,407.11,0.27,-1.0,0.0,138.16,26.22,24.62,36.30,0.04,-272.75,-272.76,-46,547,-927,19.7,0.9,-39.3,19.8,0.9,-38.6,5.73,2.41,-36.7,25.1
2013-03-12 00:16:00,0.0,1.9413,0.0009,406.94,0.32,-1.0,0.0,138.16,26.22,24.62,36.30,0.04,-272.75,-272.76,-46,547,-927,19.7,0.9,-39.3,19.8,0.9,-38.6,5.73,2.41,-36.7,25.1
2013-03-12 00:17:00,0.0,1.9414,0.0010,406.99,0.28,-1.0,0.0,138.16,26.22,24.62,36.30,0.04,-272.75,-272.75,-46,547,-927,19.7,0.9,-39.2,19.8,0.9,-38.6,5.73,2.40,-36.7,25.1
2013-03-12 00:18:00,0.0,1.9419,0.0011,407.02,0.27,-1.0,0.0,138.16,26.22,24.61,36.30,0.04,-272.75,-272.75,-46,547,-927,19.7,0.9,-39.4,19.8,0.9,-38.6,5.73,2.38,-36.7,25.1
2013-03-12 00:19:00,0.0,1.9417,0.0010,406.96,0.27,-1.0,0.0,138.16,26.21,24.62,36.30,0.04,-272.76,-272.76,-46,547,-928,19.7,0.9,-39.3,19.8,0.9,-38.6,5.73,2.36,-36.7,25.1
2013-03-12 00:20:00,0.0,1.9412,0.0007,406.96,0.24,-1.0,0.0,138.16,26.21,24.62,36.30,0.04,-272.75,-272.76,-46,547,-928,19.7,0.9,-39.3,19.8,0.9,-39.0,5.73,2.35,-36.6,25.1
2013-03-12 00:21:00,0.0,1.9414,0.0010,406.97,0.32,-1.0,0.0,138.16,26.21,24.62,36.30,0.04,-272.76,-272.76,-46,547,-927,19.7,0.8,-39.6,19.8,0.9,-38.9,5.73,2.36,-36.6,25.1
2013-03-12 00:22:00,0.0,1.9416,0.0009,406.86,0.28,-1.0,0.0,138.16,26.21,24.62,36.31,0.04,-272.75,-272.75,-46,547,-927,19.7,0.8,-39.6,19.9,0.9,-38.9,5.73,2.38,-36.6,25.1
2013-03-12 00:23:00,0.0,1.9419,0.0009,407.01,0.35,-1.0,0.0,138.16,26.21,24.62,36.30,0.04,-272.75,-272.76,-46,547,-927,19.7,0.8,-39.6,19.8,0.9,-39.0,5.73,2.40,-36.6,25.1
2013-03-12 00:24:00,0.0,1.9431,0.0011,407.04,0.34,-1.0,0.0,138.16,26.21,24.62,36.30,0.04,-272.75,-272.76,-46,547,-927,19.7,0.9,-39.5,19.9,0.9,-38.9,5.73,2.41,-36.6,25.1
2013-03-12 00:25:00,0.0,1.9453,0.0011,406.98,0.31,-1.0,0.0,138.16,26.21,24.62,36.30,0.04,-272.75,-272.75,-46,547,-928,19.7,0.9,-39.5,19.8,0.9,-38.9,5.73,2.41,-36.6,25.1
2013-03-12 00:26:00,0.0,1.9462,0.0009,406.98,0.28,-1.0,0.0,138.16,26.21,24.62,36.30,0.04,-272.76,-272.76,-46,547,-927,19.7,0.8,-39.6,19.8,0.9,-39.0,5.73,2.40,-36.6,25.1
2013-03-12 00:27:00,0.0,1.9461,0.0010,407.01,0.29,-1.0,0.0,138.16,26.20,24.62,36.30,0.04,-272.76,-272.75,-46,547,-927,19.7,0.8,-39.6,19.8,0.9,-38.9,5.73,2.38,-36.5,25.1
2013-03-12 00:28:00,0.0,1.9464,0.0014,406.99,0.31,-1.0,0.0,138.16,26.20,24.61,36.30,0.04,-272.75,-272.75,-46,547,-927,19.7,0.8,-39.6,19.8,0.9,-38.9,5.73,2.36,-36.5,25.1
2013-03-12 00:29:00,0.0,1.9462,0.0011,406.99,0.31,-1.0,0.0,138.16,26.20,24.62,36.30,0.04,-272.76,-272.76,-46,547,-928,19.7,0.8,-39.6,19.8,0.9,-38.9,5.73,2.35,-36.5,25.1
2013-03-12 00:30:00,0.0,1.9454,0.0011,406.96,0.34,-1.0,0.0,138.16,26.20,24.62,36.30,0.04,-272.75,-272.76,-46,547,-928,19.7,0.8,-39.7,19.8,0.9,-39.2,5.73,2.35,-36.5,25.1
2013-03-12 00:31:00,0.0,1.9444,0.0010,407.04,0.35,-1.0,0.0,138.16,26.20,24.62,36.30,0.04,-272.75,-272.75,-46,547,-927,19.7,0.9,-39.5,19.9,0.9,-39.0,5.73,2.37,-36.5,25.1
2013-03-12 00:32:00,0.0,1.9435,0.0009,407.09,0.31,-1.0,0.0,138.16,26.19,24.62,36.30,0.04,-272.75,-272.76,-46,547,-927,19.7,0.8,-39.6,19.8,0.9,-39.0,5.73,2.39,-36.5,25.1
2013-03-12 00:33:00,0.0,1.9435,0.0009,407.20,0.28,-1.0,0.0,138.16,26.19,24.62,36.30,0.04,-272.76,-272.76,-46,547,-927,19.7,0.9,-39.3,19.8,0.9,-38.9,5.73,2.40,-36.5,25.1
2013-03-12 00:34:00,0.0,1.9430,0.0008,407.12,0.26,-1.0,0.0,138.16,26.19,24.62,36.30,0.04,-272.75,-272.75,-46,547,-928,19.7,0.9,-39.3,19.9,0.9,-38.7,5.73,2.41,-36.5,25.1
2013-03-12 00:35:00,0.0,1.9429,0.0009,407.19,0.28,-1.0,0.0,138.16,26.19,24.62,36.30,0.04,-272.75,-272.75,-46,547,-928,19.7,0.9,-39.3,19.8,0.9,-38.6,5.73,2.41,-36.4,25.1
2013-03-12 00:36:00,0.0,1.9427,0.0009,407.21,0.28,-1.0,0.0,138.16,26.18,24.62,36.30,0.04,-272.75,-272.76,-46,547,-928,19.7,0.9,-39.2,19.8,0.9,-38.6,5.73,2.40,-36.4,25.1
2013-03-12 00:37:00,0.0,1.9421,0.0009,407.16,0.24,-1.0,0.0,138.16,26.18,24.62,36.30,0.04,-272.76,-272.76,-46,547,-927,19.7,0.9,-39.0,19.8,0.9,-38.5,5.73,2.38,-36.4,25.1
2013-03-12 00:38:00,0.0,1.9426,0.0009,407.24,0.28,-1.0,0.0,138.16,26.18,24.62,36.30,0.04,-272.75,-272.75,-46,547,-927,19.7,0.9,-39.0,19.8,1.0,-38.4,5.73,2.37,-36.4,25.1
2013-03-12 00:39:00,0.0,1.9421,0.0009,407.30,0.28,-1.0,0.0,138.16,26.18,24.62,36.30,0.04,-272.75,-272.76,-46,547,-927,19.7,0.9,-38.9,19.8,1.0,-38.4,5.73,2.36,-36.4,25.1
2013-03-12 00:40:00,0.0,1.9422,0.0009,407.23,0.26,-1.0,0.0,138.16,26.18,24.62,36.30,0.04,-272.76,-272.76,-46,547,-928,19.7,0.9,-38.7,19.9,1.0,-38.3,5.73,2.35,-36.4,25.1
2013-03-12 00:41:00,0.0,1.9423,0.0008,407.21,0.31,-1.0,0.0,138.16,26.18,24.62,36.30,0.04,-272.75,-272.75,-46,547,-928,19.7,0.9,-38.6,19.8,1.0,-38.1,5.73,2.36,-36.4,25.1
2013-03-12 00:42:00,0.0,1.9426,0.0009,407.23,0.29,-1.0,0.0,138.16,26.18,24.62,36.30,0.04,-272.75,-272.75,-46,547,-928,19.7,0.9,-38.6,19.9,1.0,-38.0,5.73,2.38,-36.4,25.1
2013-03-12 00:43:00,0.0,1.9423,0.0009,407.23,0.27,-1.0,0.0,138.16,26.18,24.62,36.30,0.04,-272.76,-272.76,-46,547,-928,19.7,1.0,-38.4,19.9,1.0,-37.8,5.73,2.40,-36.3,25.1
2013-03-12 00:44:00,0.0,1.9419,0.0008,407.30,0.27,-1.0,0.0,138.16,26.17,24.62,36.30,0.04,-272.75,-272.76,-46,547,-928,19.7,1.0,-38.4,19.8,1.0,-37.8,5.73,2.41,-36.3,25.1
2013-03-12 00:45:00,0.0,1.9420,0.0009,407.17,0.30,-1.0,0.0,138.16,26.17,24.61,36.30,0.04,-272.76,-272.76,-46,547,-928,19.7,1.0,-38.4,19.9,1.0,-37.8,5.73,2.41,-36.3,25.1
2013-03-12 00:46:00,0.0,1.9419,0.0009,407.16,0.33,-1.0,0.0,138.16,26.17,24.62,36.31,0.04,-272.75,-272.76,-46,547,-927,19.7,1.0,-38.4,19.9,1.0,-37.8,5.73,2.40,-36.3,25.1
2013-03-12 00:47:00,0.0,1.9417,0.0010,407.27,0.24,-1.0,0.0,138.16,26.17,24.62,36.30,0.04,-272.75,-272.76,-46,547,-928,19.7,1.0,-38.4,19.9,1.0,-37.8,5.73,2.39,-36.3,25.1
2013-03-12 00:48:00,0.0,1.9408,0.0007,407.13,0.26,-1.0,0.0,138.16,26.17,24.62,36.31,0.04,-272.75,-272.75,-46,547,-927,19.7,1.0,-38.2,19.9,1.0,-37.8,5.73,2.37,-36.3,25.1
2013-03-12 00:49:00,0.0,1.9412,0.0007,407.25,0.28,-1.0,0.0,138.16,26.17,24.62,36.30,0.04,-272.76,-272.76,-46,547,-928,19.7,1.0,-38.4,19.9,1.0,-37.8,5.73,2.36,-36.3,25.1
2013-03-12 00:50:00,0.0,1.9411,0.0008,407.21,0.25,-1.0,0.0,138.16,26.16,24.62,36.30,0.04,-272.76,-272.75,-46,547,-928,19.7,1.0,-38.1,19.9,1.0,-37.8,5.73,2.35,-36.3,25.1
2013-03-12 00:51:00,0.0,1.9414,0.0010,407.27,0.29,-1.0,0.0,138.16,26.16,24.62,36.30,0.04,-272.75,-272.76,-46,547,-928,19.7,1.0,-38.1,19.9,1.0,-37.5,5.73,2.36,-36.2,25.1
2013-03-12 00:52:00,0.0,1.9411,0.0008,407.23,0.27,-1.0,0.0,138.16,26.16,24.62,36.31,0.04,-272.76,-272.75,-46,547,-928,19.7,1.0,-38.1,19.9,1.0,-37.5,5.73,2.37,-36.2,25.1
2013-03-12 00:53:00,0.0,1.9414,0.0008,407.19,0.27,-1.0,0.0,138.16,26.16,24.62,36.31,0.04,-272.75,-272.75,-46,547,-928,19.7,1.0,-38.0,19.9,1.0,-37.6,5.73,2.39,-36.2,25.2
2013-03-12 00:54:00,0.0,1.9411,0.0010,407.28,0.31,-1.0,0.0,138.16,26.16,24.62,36.30,0.04,-272.75,-272.75,-46,547,-928,19.7,1.0,-37.8,19.9,1.1,-37.3,5.73,2.40,-36.2,25.1
2013-03-12 00:55:00,0.0,1.9415,0.0010,407.24,0.33,-1.0,0.0,138.16,26.16,24.62,36.31,0.04,-272.75,-272.75,-46,547,-928,19.7,1.0,-37.8,19.9,1.1,-37.2,5.73,2.41,-36.2,25.2
2013-03-12 00:56:00,0.0,1.9414,0.0008,407.27,0.27,-1.0,0.0,138.16,26.16,24.62,36.30,0.04,-272.75,-272.75,-46,547,-928,19.7,1.0,-37.8,19.9,1.1,-37.3,5.73,2.41,-36.1,25.1
2013-03-12 00:57:00,0.0,1.9403,0.0008,407.23,0.29,-1.0,0.0,138.16,26.16,24.62,36.30,0.04,-272.76,-272.76,-46,547,-928,19.7,1.0,-37.8,19.9,1.1,-37.3,5.73,2.40,-36.1,25.2
2013-03-12 00:58:00,0.0,1.9404,0.0010,407.21,0.27,-1.0,0.0,138.16,26.16,24.62,36.30,0.04,-272.75,-272.76,-46,547,-928,19.7,1.0,-37.8,19.9,1.1,-37.2,5.73,2.38,-36.1,25.2
2013-03-12 00:59:00,0.0,1.9395,0.0008,407.18,0.30,-1.0,0.0,138.16,26.16,24.62,36.30,0.04,-272.75,-272.76,-46,547,-928,19.8,1.0,-37.8,19.9,1.1,-37.3,5.73,2.37,-36.1,25.1
2013-03-12 01:00:00,0.0,1.9388,0.0009,407.21,0.28,-1.0,0.0,138.16,26.16,24.62,36.30,0.04,-272.75,-272.76,-46,547,-928,19.7,1.0,-37.8,19.9,1.1,-37.3,5.73,2.36,-36.1,25.1
2013-03-12 01:01:00,0.0,1.9394,0.0008,407.08,0.28,-1.0,0.0,138.16,26.16,24.62,36.31,0.04,-272.75,-272.76,-46,547,-927,19.8,1.0,-37.8,19.9,1.1,-37.2,5.73,2.35,-36.1,25.1
2013-03-12 01:02:00,0.0,1.9402,0.0009,407.28,0.26,-1.0,0.0,138.16,26.16,24.62,36.30,0.04,-272.75,-272.75,-46,547,-927,19.8,1.0,-37.8,19.9,1.1,-37.2,5.73,2.36,-36.0,25.1
2013-03-12 01:03:00,0.0,1.9403,0.0010,407.19,0.29,-1.0,0.0,138.16,26.16,24.62,36.30,0.04,-272.76,-272.76,-46,547,-928,19.8,1.0,-37.8,19.9,1.1,-37.3,5.73,2.37,-36.0,25.1
2013-03-12 01:04:00,0.0,1.9405,0.0007,407.19,0.31,-1.0,0.0,138.16,26.16,24.62,36.31,0.04,-272.76,-272.76,-46,547,-928,19.8,1.0,-37.8,19.9,1.1,-37.2,5.73,2.39,-36.0,25.1
2013-03-12 01:05:00,0.0,1.9406,0.0008,407.28,0.26,-1.0,0.0,138.16,26.16,24.62,36.30,0.04,-272.75,-272.76,-46,547,-928,19.8,1.0,-37.8,19.9,1.1,-37.2,5.73,2.40,-36.0,25.1
2013-03-12 01:06:00,0.0,1.9406,0.0008,407.28,0.27,-1.0,0.0,138.16,26.16,24.62,36.30,0.04,-272.76,-272.76,-46,547,-928,19.8,1.0,-37.7,19.9,1.1,-37.2,5.73,2.41,-36.0,25.2
2013-03-12 01:07:00,0.0,1.9409,0.0008,407.28,0.31,-1.0,0.0,138.16,26.15,24.62,36.30,0.04,-272.75,-272.75,-46,547,-927,19.8,1.0,-37.8,19.9,1.1,-37.3,5.73,2.40,-35.9,25.1
2013-03-12 01:08:00,0.0,1.9408,0.0010,407.14,0.26,-1.0,0.0,138.16,26.15,24.62,36.30,0.04,-272.76,-272.76,-46,547,-928,19.8,1.0,-37.7,19.9,1.1,-37.2,5.73,2.40,-35.9,25.1
2013-03-12 01:09:00,0.0,1.9408,0.0008,407.18,0.26,-1.0,0.0,138.16,26.15,24.62,36.30,0.04,-272.75,-272.75,-46,547,-928,19.8,1.0,-37.8,19.9,1.1,-37.2,5.73,2.39,-35.9,25.1
2013-03-12 01:10:00,0.0,1.9411,0.0008,407.16,0.27,-1.0,0.0,138.16,26.15,24.62,36.31,0.04,-272.76,-272.76,-46,547,-927,19.8,1.0,-37.8,19.9,1.0,-37.4,5.73,2.37,-35.9,25.2
2013-03-12 01:11:00,0.0,1.9413,0.0008,407.10,0.29,-1.0,0.0,138.16,26.15,24.62,36.30,0.04,-272.75,-272.76,-46,547,-927,19.8,1.0,-38.0,19.9,1.0,-37.5,5.73,2.36,-35.9,25.2
2013-03-12 01:12:00,0.0,1.9418,0.0008,407.04,0.29,-1.0,0.0,138.16,26.15,24.61,36.31,0.04,-272.75,-272.75,-46,547,-927,19.8,1.0,-38.1,19.9,1.0,-37.5,5.73,2.36,-35.9,25.1
2013-03-12 01:13:00,0.0,1.9419,0.0008,407.14,0.25,-1.0,0.0,138.16,26.15,24.61,36.31,0.04,-272.76,-272.76,-46,547,-928,19.8,1.0,-38.1,19.9,1.0,-37.5,5.73,2.36,-35.9,25.2
2013-03-12 01:14:00,0.0,1.9414,0.0007,407.09,0.30,-1.0,0.0,138.16,26.14,24.62,36.30,0.04,-272.76,-272.75,-46,547,-928,19.8,1.0,-37.9,19.9,1.0,-37.4,5.73,2.37,-35.9,25.2
2013-03-12 01:15:00,0.0,1.9412,0.0009,407.12,0.26,-1.0,0.0,138.16,26.14,24.62,36.30,0.04,-272.75,-272.75,-46,547,-927,19.8,1.0,-37.8,19.9,1.1,-37.3,5.73,2.38,-35.8,25.2
2013-03-12 01:16:00,0.0,1.9410,0.0009,407.11,0.28,-1.0,0.0,138.16,26.14,24.62,36.30,0.04,-272.76,-272.75,-46,547,-927,19.8,1.0,-37.8,19.9,1.1,-37.3,5.73,2.39,-35.8,25.2
2013-03-12 01:17:00,0.0,1.9411,0.0008,407.19,0.29,-1.0,0.0,138.16,26.14,24.62,36.30,0.04,-272.76,-272.75,-46,547,-928,19.8,1.0,-37.6,19.9,1.1,-37.1,5.73,2.41,-35.8,25.2
2013-03-12 01:18:00,0.0,1.9409,0.0008,407.13,0.29,-1.0,0.0,138.16,26.14,24.62,36.30,0.04,-272.75,-272.76,-46,547,-928,19.8,1.0,-37.5,19.9,1.1,-37.0,5.73,2.41,-35.8,25.2
2013-03-12 01:19:00,0.0,1.9409,0.0008,407.19,0.33,-1.0,0.0,138.16,26.14,24.62,36.30,0.04,-272.75,-272.75,-46,547,-927,19.8,1.1,-37.3,19.9,1.1,-36.8,5.73,2.40,-35.8,25.2
2013-03-12 01:20:00,0.0,1.9412,0.0010,407.11,0.25,-1.0,0.0,138.16,26.14,24.62,36.30,0.04,-272.76,-272.76,-46,547,-927,19.8,1.1,-37.1,19.9,1.1,-36.8,5.73,2.39,-35.8,25.2
2013-03-12 01:21:00,0.0,1.9413,0.0008,407.09,0.29,-1.0,0.0,138.16,26.15,24.62,36.30,0.04,-272.76,-272.75,-46,547,-928,19.8,1.1,-37.1,19.9,1.1,-36.5,5.73,2.38,-35.7,25.2
2013-03-12 01:22:00,0.0,1.9426,0.0010,407.18,0.27,-1.0,0.0,138.16,26.15,24.62,36.30,0.04,-272.75,-272.75,-46,547,-928,19.8,1.1,-37.0,19.9,1.1,-36.5,5.73,2.37,-35.7,25.2
2013-03-12 01:23:00,0.0,1.9430,0.0012,407.36,0.32,-1.0,0.0,138.16,26.15,24.62,36.30,0.04,-272.75,-272.76,-46,547,-927,19.8,1.1,-36.8,19.9,1.2,-36.4,5.73,2.37,-35.7,25.2
2013-03-12 01:24:00,0.0,1.9423,0.0009,407.16,0.28,-1.0,0.0,138.16,26.15,24.62,36.30,0.04,-272.75,-272.76,-46,547,-927,19.8,1.1,-36.7,19.9,1.2,-36.2,5.73,2.36,-35.7,25.2
2013-03-12 01:25:00,0.0,1.9415,0.0007,407.20,0.30,-1.0,0.0,138.16,26.14,24.62,36.31,0.04,-272.75,-272.76,-46,547,-927,19.8,1.2,-36.5,19.9,1.2,-36.0,5.73,2.36,-35.7,25.2
2013-03-12 01:26:00,0.0,1.9420,0.0008,407.21,0.26,-1.0,0.0,138.16,26.14,24.62,36.30,0.04,-272.75,-272.76,-46,547,-928,19.8,1.1,-36.5,19.9,1.2,-36.0,5.73,2.36,-35.7,25.2
2013-03-12 01:27:00,0.0,1.9417,0.0009,407.21,0.27,-1.0,0.0,138.16,26.14,24.62,36.31,0.04,-272.76,-272.76,-46,547,-928,19.8,1.2,-36.3,19.9,1.2,-35.8,5.73,2.37,-35.7,25.2
2013-03-12 01:28:00,0.0,1.9415,0.0011,407.03,0.29,-1.0,0.0,138.16,26.14,24.62,36.31,0.04,-272.75,-272.75,-46,547,-927,19.8,1.2,-36.3,19.9,1.2,-35.8,5.73,2.38,-35.6,25.2
2013-03-12 01:29:00,0.0,1.9411,0.0009,407.13,0.28,-1.0,0.0,138.16,26.15,24.62,36.30,0.04,-272.75,-272.76,-46,547,-928,19.8,1.2,-36.3,19.9,1.2,-35.8,5.73,2.39,-35.6,25.2
2013-03-12 01:30:00,0.0,1.9424,0.0010,407.25,0.25,-1.0,0.0,138.16,26.15,24.62,36.30,0.04,-272.76,-272.76,-46,547,-928,19.8,1.2,-36.2,20.0,1.2,-35.6,5.73,2.40,-35.6,25.2
2013-03-12 01:31:00,0.0,1.9412,0.0012,407.00,0.33,-1.0,0.0,138.15,26.15,24.62,36.31,0.04,-272.76,-272.76,-46,547,-927,19.8,1.2,-36.0,20.0,1.3,-35.5,5.73,2.40,-35.6,25.2
2013-03-12 01:32:00,0.0,1.9407,0.0009,406.96,0.29,-1.0,0.0,138.16,26.15,24.62,36.31,0.04,-272.75,-272.76,-46,547,-928,19.8,1.2,-35.9,20.0,1.3,-35.5,5.73,2.40,-35.6,25.2
2013-03-12 01:33:00,0.0,1.9414,0.0008,407.06,0.29,-1.0,0.0,138.16,26.14,24.62,36.31,0.04,-272.76,-272.76,-46,547,-928,19.8,1.2,-35.8,20.0,1.3,-35.3,5.73,2.40,-35.5,25.2
2013-03-12 01:34:00,0.0,1.9414,0.0009,407.02,0.32,-1.0,0.0,138.16,26.14,24.62,36.30,0.04,-272.76,-272.76,-46,548,-928,19.8,1.2,-35.8,20.0,1.3,-35.3,5.73,2.39,-35.5,25.2
2013-03-12 01:35:00,0.0,1.9415,0.0009,406.99,0.30,-1.0,0.0,138.16,26.14,24.62,36.30,0.04,-272.76,-272.76,-46,547,-927,19.8,1.2,-35.8,20.0,1.3,-35.4,5.73,2.39,-35.5,25.2
2013-03-12 01:36:00,0.0,1.9421,0.0009,407.12,0.31,-1.0,0.0,138.16,26.14,24.62,36.30,0.04,-272.75,-272.75,-47,547,-927,19.8,1.2,-35.8,20.0,1.3,-35.3,5.73,2.38,-35.5,25.2
2013-03-12 01:37:00,0.0,1.9428,0.0011,407.02,0.26,-1.0,0.0,138.15,26.15,24.61,36.31,0.04,-272.76,-272.76,-47,548,-927,19.8,1.2,-35.8,19.9,1.3,-35.2,5.73,2.37,-35.5,25.2
2013-03-12 01:38:00,0.0,1.9422,0.0009,407.13,0.30,-1.0,0.0,138.15,26.15,24.62,36.31,0.04,-272.76,-272.76,-46,548,-928,19.8,1.3,-35.7,20.0,1.3,-35.1,5.73,2.36,-35.5,25.3
2013-03-12 01:39:00,0.0,1.9423,0.0008,407.03,0.28,-1.0,0.0,138.15,26.15,24.62,36.31,0.04,-272.75,-272.76,-46,548,-928,19.9,1.3,-35.6,20.0,1.3,-35.1,5.73,2.36,-35.4,25.3
2013-03-12 01:40:00,0.0,1.9424,0.0009,407.15,0.27,-1.0,0.0,138.15,26.15,24.62,36.30,0.04,-272.75,-272.76,-46,548,-928,19.8,1.3,-35.6,20.0,1.3,-35.2,5.73,2.37,-35.4,25.2
2013-03-12 01:41:00,0.0,1.9424,0.0009,407.08,0.32,-1.0,0.0,138.15,26.15,24.62,36.30,0.04,-272.76,-272.75,-46,548,-928,19.9,1.2,-35.7,20.0,1.3,-35.2,5.73,2.37,-35.4,25.3
2013-03-12 01:42:00,0.0,1.9424,0.0009,407.15,0.30,-1.0,0.0,138.15,26.15,24.62,36.31,0.04,-272.75,-272.76,-46,548,-928,19.9,1.2,-35.8,20.0,1.3,-35.3,5.73,2.37,-35.4,25.2
2013-03-12 01:43:00,0.0,1.9425,0.0010,407.02,0.26,-1.0,0.0,138.15,26.15,24.62,36.30,0.04,-272.75,-272.76,-47,548,-928,19.9,1.2,-35.8,20.0,1.3,-35.3,5.73,2.38,-35.3,25.3
2013-03-12 01:44:00,0.0,1.9423,0.0010,407.07,0.28,-1.0,0.0,138.15,26.15,24.62,36.30,0.04,-272.76,-272.76,-47,548,-928,19.9,1.2,-35.7,20.0,1.3,-35.1,5.73,2.38,-35.3,25.3
2013-03-12 01:45:00,0.0,1.9424,0.0008,407.13,0.32,-1.0,0.0,138.15,26.15,24.62,36.30,0.04,-272.75,-272.76,-47,548,-928,19.9,1.3,-35.5,20.0,1.3,-35.1,5.73,2.39,-35.3,25.3
2013-03-12 01:46:00,0.0,1.9423,0.0009,407.08,0.32,-1.0,0.0,138.15,26.15,24.62,36.31,0.04,-272.76,-272.76,-47,548,-928,19.9,1.3,-35.6,20.0,1.3,-35.1,5.73,2.40,-35.3,25.3
2013-03-12 01:47:00,0.0,1.9425,0.0010,407.04,0.26,-1.0,0.0,138.16,26.15,24.62,36.31,0.04,-272.75,-272.75,-46,548,-928,19.9,1.3,-35.6,20.0,1.3,-35.1,5.73,2.40,-35.3,25.3
2013-03-12 01:48:00,0.0,1.9431,0.0010,407.05,0.29,-1.0,0.0,138.15,26.15,24.61,36.31,0.04,-272.76,-272.75,-46,548,-928,19.9,1.3,-35.6,20.0,1.3,-35.1,5.73,2.40,-35.2,25.3
2013-03-12 01:49:00,0.0,1.9425,0.0009,406.98,0.32,-1.0,0.0,138.15,26.15,24.62,36.31,0.24,-271.12,-272.67,-46,548,-928,19.9,1.3,-35.6,20.0,1.3,-35.1,5.42,2.48,-38.7,25.3
2013-03-12 01:50:00,0.0,1.9428,0.0009,407.01,0.30,-1.0,0.0,138.15,26.15,24.62,36.31,0.04,-272.76,-272.76,-47,548,-928,19.9,1.3,-35.5,20.0,1.3,-35.0,5.73,2.39,-35.2,25.2
2013-03-12 01:51:00,0.0,1.9427,0.0008,406.99,0.28,-1.0,0.0,138.15,26.15,24.62,36.31,0.04,-272.76,-272.75,-47,548,-928,19.9,1.3,-35.3,20.0,1.3,-34.9,5.73,2.38,-35.2,25.3
2013-03-12 01:52:00,0.0,1.9431,0.0009,407.02,0.26,-1.0,0.0,138.15,26.15,24.62,36.30,0.04,-272.75,-272.76,-47,548,-928,19.9,1.3,-35.5,20.0,1.3,-34.9,5.73,2.37,-35.2,25.3
2013-03-12 01:53:00,0.0,1.9430,0.0009,407.10,0.29,-1.0,0.0,138.15,26.15,24.62,36.30,0.04,-272.75,-272.75,-47,548,-928,19.9,1.3,-35.4,20.0,1.3,-34.9,5.73,2.38,-35.1,25.3
2013-03-12 01:54:00,0.0,1.9435,0.0008,407.06,0.35,-1.0,0.0,138.15,26.15,24.62,36.30,0.04,-272.75,-272.76,-47,548,-928,19.9,1.3,-35.4,20.1,1.3,-34.8,5.73,2.37,-35.1,25.3
2013-03-12 01:55:00,0.0,1.9431,0.0009,407.02,0.30,-1.0,0.0,138.15,26.15,24.62,36.30,0.04,-272.76,-272.76,-47,548,-928,19.9,1.3,-35.3,20.0,1.3,-34.8,5.73,2.37,-35.1,25.3
2013-03-12 01:56:00,0.0,1.9430,0.0009,407.02,0.30,-1.0,0.0,138.15,26.15,24.62,36.31,0.04,-272.75,-272.76,-47,548,-928,20.0,1.3,-35.3,20.0,1.4,-34.6,5.73,2.37,-35.1,25.3
2013-03-12 01:57:00,0.0,1.9432,0.0008,407.01,0.30,-1.0,0.0,138.15,26.15,24.62,36.31,0.04,-272.76,-272.76,-47,548,-928,19.9,1.3,-35.3,20.0,1.4,-34.7,5.73,2.36,-35.1,25.3
2013-03-12 01:58:00,0.0,1.9432,0.0007,407.09,0.25,-1.0,0.0,138.15,26.15,24.62,36.31,0.04,-272.76,-272.76,-47,548,-928,20.0,1.3,-35.1,20.0,1.4,-34.7,5.73,2.37,-35.0,25.3
2013-03-12 01:59:00,0.0,1.9434,0.0009,407.02,0.31,-1.0,0.0,138.15,26.15,24.62,36.31,0.04,-272.75,-272.76,-47,548,-928,20.0,1.3,-35.1,20.1,1.4,-34.7,5.73,2.37,-35.0,25.3
2013-03-12 02:00:00,0.0,1.9434,0.0009,407.12,0.27,-1.0,0.0,138.15,26.15,24.61,36.31,0.04,-272.76,-272.75,-47,548,-928,20.0,1.3,-35.1,20.1,1.4,-34.7,5.73,2.37,-35.0,25.3
2013-03-12 02:01:00,0.0,1.9431,0.0008,407.09,0.28,-1.0,0.0,138.15,26.15,24.62,36.31,0.04,-272.75,-272.75,-47,548,-928,20.0,1.3,-34.9,20.1,1.4,-34.5,5.73,2.37,-35.0,25.3
2013-03-12 02:02:00,0.0,1.9432,0.0009,407.28,0.27,-1.0,0.0,138.15,26.16,24.62,36.29,0.04,-272.75,-272.75,-47,548,-928,20.0,1.3,-34.9,20.1,1.4,-34.5,5.73,2.38,-35.0,25.3
2013-03-12 02:03:00,0.0,1.9430,0.0008,407.10,0.27,-1.0,0.0,138.15,26.16,24.62,36.31,0.04,-272.75,-272.76,-47,548,-928,20.0,1.3,-34.9,20.1,1.4,-34.4,5.73,2.38,-35.0,25.3
2013-03-12 02:04:00,0.0,1.9429,0.0008,407.06,0.32,-1.0,0.0,138.15,26.16,24.62,36.31,0.04,-272.75,-272.76,-47,548,-928,20.0,1.3,-35.0,20.1,1.4,-34.4,5.73,2.39,-34.9,25.3
2013-03-12 02:05:00,0.0,1.9429,0.0008,407.13,0.35,-1.0,0.0,138.15,26.16,24.62,36.30,0.04,-272.76,-272.75,-47,548,-928,20.0,1.3,-35.1,20.1,1.4,-34.7,5.73,2.39,-34.9,25.4
2013-03-12 02:06:00,0.0,1.9427,0.0008,407.10,0.24,-1.0,0.0,138.15,26.16,24.62,36.31,0.04,-272.75,-272.75,-47,548,-928,20.0,1.3,-35.1,20.1,1.4,-34.7,5.73,2.39,-34.9,25.4
2013-03-12 02:07:00,0.0,1.9429,0.0010,407.17,0.25,-1.0,0.0,138.15,26.17,24.62,36.31,0.04,-272.75,-272.76,-47,548,-928,20.0,1.3,-35.2,20.1,1.4,-34.7,5.73,2.39,-34.9,25.4
2013-03-12 02:08:00,0.0,1.9430,0.0009,407.14,0.23,-1.0,0.0,138.15,26.17,24.62,36.31,0.04,-272.75,-272.76,-47,548,-928,20.0,1.3,-35.2,20.1,1.3,-34.8,5.73,2.39,-34.8,25.3
2013-03-12 02:09:00,0.0,1.9429,0.0009,407.23,0.29,-1.0,0.0,138.15,26.17,24.62,36.30,0.04,-272.75,-272.75,-47,548,-928,20.0,1.3,-35.3,20.1,1.3,-34.8,5.73,2.39,-34.9,25.3
2013-03-12 02:10:00,0.0,1.9433,0.0009,407.10,0.32,-1.0,0.0,138.15,26.17,24.62,36.31,0.04,-272.76,-272.75,-47,548,-928,20.0,1.3,-35.3,20.1,1.3,-34.8,5.73,2.39,-34.8,25.3
2013-03-12 02:11:00,0.0,1.9437,0.0009,407.17,0.29,-1.0,0.0,138.15,26.17,24.62,36.30,0.04,-272.76,-272.76,-47,548,-928,20.0,1.3,-35.3,20.1,1.3,-34.8,5.73,2.39,-34.8,25.4
2013-03-12 02:12:00,0.0,1.9435,0.0009,407.14,0.26,-1.0,0.0,138.15,26.17,24.62,36.30,0.04,-272.75,-272.75,-47,548,-928,20.0,1.3,-35.3,20.1,1.3,-34.8,5.73,2.39,-34.8,25.4
2013-03-12 02:13:00,0.0,1.9439,0.0009,407.14,0.29,-1.0,0.0,138.15,26.17,24.62,36.31,0.04,-272.75,-272.75,-47,548,-928,20.0,1.3,-35.3,20.1,1.3,-34.8,5.73,2.38,-34.7,25.4
2013-03-12 02:14:00,0.0,1.9444,0.0009,407.18,0.30,-1.0,0.0,138.15,26.18,24.62,36.31,0.04,-272.75,-272.76,-47,548,-927,20.0,1.3,-35.3,20.1,1.3,-34.8,5.73,2.38,-34.7,25.4
2013-03-12 02:15:00,0.0,1.9446,0.0008,407.14,0.29,-1.0,0.0,138.15,26.18,24.61,36.31,0.04,-272.75,-272.75,-47,548,-928,20.0,1.3,-35.2,20.1,1.3,-34.8,5.73,2.38,-34.7,25.4
2013-03-12 02:16:00,0.0,1.9443,0.0009,407.12,0.26,-1.0,0.0,138.15,26.18,24.62,36.31,0.04,-272.75,-272.75,-47,548,-927,20.1,1.3,-35.3,20.1,1.3,-34.8,5.73,2.38,-34.7,25.4
2013-03-12 02:17:00,0.0,1.9437,0.0010,407.16,0.26,-1.0,0.0,138.15,26.18,24.62,36.30,0.04,-272.75,-272.76,-47,548,-928,20.0,1.3,-35.3,20.1,1.3,-34.8,5.73,2.37,-34.7,25.4
2013-03-12 02:18:00,0.0,1.9437,0.0009,407.11,0.27,-1.0,0.0,138.15,26.18,24.62,36.31,0.04,-272.76,-272.76,-47,549,-928,20.1,1.3,-35.2,20.1,1.3,-34.8,5.73,2.37,-34.7,25.4